Location: Newark
(49.3808°N, 3.1844°E)
Time: 09:11:31
(UTC+00:00)

Vanguard 1 Rocket - Pass Details

Date: 16 November 2019
Orbit: 650 x 4226 km, 34.3° (Epoch: 11 December)

Event Time Altitude Azimuth Distance (km) Brightness Sun altitude
Rises 10:08:01 0° 251° (WSW) 4,281 10.8 19.4°
Reaches altitude 10° 10:14:23 10° 215° (SW) 4,126 11.3 19.8°
Maximum altitude 10:16:24 11° 204° (SSW) 4,331 11.7 19.9°
Drops below altitude 10° 10:18:39 10° 194° (SSW) 4,662 12.1 20.0°
Sets 10:29:01 0° 164° (SSE) 6,842 13.5 20.5°
